Dewpoint
61 55 49 50 50 37 34 33 16 11 14 7 -1 -2 -1 1 8 3 13 26 25 52 54 55 48 44 37 40 44 52 55 45 56 47 51 63 64 63 63 64 66 68 69 69 69 71 71 73 73 73 73 73 73 73 73 73 73 73 73 73 73 72 72 72 71 72 71 72 72 72 71 71 71 71 71 70 70 70 70 69 69 68 68 68 69 69 69 69 69 69 69 68 68 68 67 67 68
48 45 45 44 42 36 29 28 17 11 2 -1 -0 -2 5 6 4 7 23 40 45 52 54 53 54 54 56 53 51 49 54 60 60 61 64 64 65 63 65 68 68 68 69 69 68 69 70 72 73 73 72 73 73 73 73 73 73 73 72 72 72 72 72 71 72 72 72 72 72 72 72 71 71 71 71 71 71 71 71 69 68 68 68 69 69 69 69 69 68 68 68 68 68 68 68 68 68
38 38 34 41 39 36 31 23 7 5 1 -4 -4 -4 9 2 3 9 24 44 50 53 54 54 54 54 52 51 48 55 57 60 60 62 64 66 64 65 67 69 68 69 70 69 68 68 70 70 73 73 72 72 72 72 73 73 72 73 73 73 72 72 72 72 72 72 72 72 72 72 71 71 71 70 70 70 71 71 71 70 69 69 69 69 67 68 68 69 68 68 68 68 68 68 68 68 68
43 38 32 36 28 28 21 15 9 3 0 -4 -8 1 -1 1 -4 9 9 32 46 52 52 52 50 56 57 50 56 56 57 59 61 63 63 65 65 66 68 68 69 68 70 70 68 67 69 72 73 73 73 72 72 72 72 73 72 72 73 73 73 72 72 72 72 72 72 72 72 72 71 71 71 70 70 70 71 71 71 71 70 69 68 67 67 67 67 68 68 68 68 68 68 68 68 68 67
34 32 38 33 26 17 19 14 1 -1 -1 -6 -8 -4 -4 -0 7 7 9 12 14 31 50 50 49 56 57 58 57 55 57 61 61 62 63 66 66 67 68 70 69 68 68 69 68 68 70 72 73 73 73 73 72 72 72 73 73 72 72 72 72 72 72 72 72 72 72 72 71 71 71 71 70 70 70 71 71 71 70 70 70 69 68 68 68 69 69 69 68 68 68 68 68 69 68 68 67
29 32 37 35 23 25 17 14 9 4 -1 -1 -11 -1 2 4 8 8 11 12 11 12 36 50 45 51 55 60 60 57 63 57 62 63 65 66 67 69 69 70 68 66 68 69 69 69 70 73 73 73 73 72 72 73 73 72 73 72 72 73 72 72 73 73 72 72 71 71 71 71 71 70 70 70 70 71 71 70 71 71 71 69 69 69 69 68 68 68 68 68 68 68 69 69 68 67 68
26 28 27 26 21 19 9 3 -6 -8 -9 0 -6 4 4 5 8 9 10 9 27 28 31 48 48 51 52 59 61 63 65 66 63 63 66 67 68 70 70 68 67 67 69 69 69 68 70 72 72 72 73 72 72 73 73 73 73 73 73 73 73 73 73 72 72 71 71 71 71 71 71 70 70 70 70 70 71 71 71 71 71 70 70 69 69 69 69 68 68 68 69 70 69 69 69 69 70
33 22 17 17 11 10 9 7 -3 -8 2 4 7 3 6 8 8 10 9 9 31 33 41 49 48 43 57 58 57 63 65 65 65 65 66 67 70 70 69 67 67 67 66 69 69 69 72 72 72 72 72 72 72 72 73 73 73 73 73 73 73 72 72 72 72 71 72 71 71 71 71 70 70 70 69 69 70 70 71 70 70 70 69 69 69 69 69 69 69 70 70 70 69 69 69 69 69
28 24 22 19 12 7 4 2 -1 -3 6 2 1 11 32 12 12 11 10 10 10 36 43 47 49 44 53 57 60 63 65 66 66 67 67 69 70 69 69 67 66 67 67 67 70 70 71 72 72 72 72 72 72 72 72 72 72 72 72 72 72 72 72 72 72 71 71 71 71 71 71 70 71 70 70 70 70 70 71 70 70 69 69 69 69 70 69 70 70 69 69 69 69 69 68 69 68
21 22 7 14 5 8 -3 -2 -3 -2 1 2 3 9 12 18 14 11 10 9 8 32 45 50 50 43 51 59 60 62 65 67 67 67 67 69 70 70 69 69 67 68 67 67 70 68 69 73 72 72 72 72 72 72 72 72 73 72 72 72 72 72 72 72 72 72 72 72 71 71 71 71 70 70 70 70 70 70 71 70 69 69 69 69 69 69 69 69 69 68 68 68 68 68 68 68 67
17 16 20 8 11 6 -2 -6 -7 4 -0 3 6 9 19 25 16 10 9 9 10 40 52 54 49 50 52 59 60 67 68 68 66 66 68 69 70 69 69 69 68 69 68 69 70 69 68 71 73 72 72 72 72 72 72 72 72 72 72 72 72 72 72 72 72 72 72 72 71 71 71 71 70 70 70 70 69 70 70 70 69 69 69 69 69 69 69 68 68 68 68 68 68 68 68 67 67
15 7 11 6 4 -1 -6 -7 -6 -4 -0 3 4 9 22 31 32 21 14 10 16 49 50 51 49 51 54 57 59 66 68 68 68 68 69 69 68 68 68 68 69 69 70 71 71 70 68 69 72 72 72 72 72 72 72 72 72 72 72 72 72 72 72 72 72 72 72 71 71 71 71 70 70 70 70 70 70 70 70 69 70 69 69 69 69 69 69 68 68 68 67 67 67 67 68 67 67
22 5 6 -1 -1 -3 -6 0 -7 1 -0 4 7 9 24 35 38 37 19 14 31 48 49 53 53 53 54 55 61 66 66 68 68 69 68 67 68 68 69 68 70 71 71 72 71 70 70 68 70 70 72 72 72 72 72 72 72 72 72 72 72 72 72 72 72 72 72 72 71 71 71 71 70 70 70 70 70 70 69 69 69 69 69 69 69 69 68 68 67 67 67 67 67 67 66 67 67
15 12 5 2 4 4 -4 -7 -2 -3 -9 6 7 9 28 41 45 43 13 25 46 46 52 57 53 55 58 60 62 63 65 67 67 67 68 68 68 67 68 68 70 70 71 69 68 69 69 68 71 71 72 70 72 72 72 72 72 72 72 72 72 72 72 72 72 72 71 71 71 71 71 70 70 70 70 70 69 69 70 69 69 68 69 69 69 69 68 66 66 67 67 67 67 67 67 67 67
14 15 13 8 -0 2 -4 -2 -4 -7 -0 7 9 9 22 44 48 49 38 39 47 57 57 57 57 53 56 54 57 60 65 66 67 69 69 67 66 67 68 70 70 69 69 69 69 70 70 69 68 69 72 71 72 73 71 73 72 71 71 72 72 72 71 72 72 71 71 71 71 71 71 70 70 70 70 70 69 69 69 69 69 69 69 68 69 69 67 67 67 67 67 67 67 67 67 68 68
18 15 8 11 4 1 -2 -0 3 -2 4 7 8 9 15 43 50 50 52 54 55 59 57 54 57 55 53 52 55 62 65 66 67 68 67 67 67 67 68 68 68 68 68 68 69 71 70 69 68 67 69 70 72 72 72 73 70 70 70 72 71 70 70 72 71 71 71 71 71 71 70 70 70 70 70 69 69 69 69 68 69 69 69 68 68 68 68 67 67 67 68 67 67 67 67 67 67
21 15 12 10 6 1 2 1 0 -6 6 7 9 8 8 30 50 53 57 56 53 56 58 58 56 58 53 55 57 63 66 67 67 67 67 66 66 66 67 67 67 67 68 68 68 69 69 69 68 67 67 69 68 71 72 71 72 70 71 71 70 71 71 71 71 71 70 70 70 70 70 70 70 69 69 67 69 69 69 69 69 69 68 68 68 68 68 68 67 68 68 68 67 67 66 67 66
16 13 11 9 2 2 -1 -0 -2 9 6 7 8 7 7 25 46 53 56 56 55 56 58 57 57 58 61 60 62 64 66 66 67 66 66 65 66 65 65 65 65 64 65 65 66 68 68 67 68 67 68 67 69 68 71 72 70 69 70 71 70 70 71 71 70 68 69 69 70 69 70 69 68 68 69 67 67 67 69 69 69 69 68 68 68 68 68 68 68 68 68 68 67 67 67 63 62
12 10 8 4 4 2 4 2 6 5 8 9 8 8 7 10 46 52 49 52 53 54 55 56 58 59 61 61 63 65 66 66 66 66 65 65 64 64 64 65 64 63 63 64 66 65 65 64 64 65 65 66 67 67 68 70 69 69 70 69 70 69 70 69 69 68 67 67 65 68 69 69 67 68 67 66 67 67 69 69 69 69 68 68 68 68 68 68 68 68 69 68 68 66 65 57 57
12 11 9 8 6 7 7 9 8 9 11 9 8 7 6 11 33 46 45 45 49 47 50 54 54 58 59 61 62 65 65 65 66 66 65 65 65 64 64 63 63 63 63 63 65 65 64 63 62 63 64 66 68 68 68 68 69 68 70 69 68 69 69 69 68 67 68 67 68 69 69 68 68 69 67 68 67 67 69 69 69 69 69 68 69 68 69 68 68 69 68 67 68 64 61 57 56
13 14 8 2 6 7 4 8 11 11 11 10 9 8 6 8 16 32 40 41 44 37 42 46 49 56 59 61 62 64 65 65 65 66 66 65 64 64 63 63 62 62 63 64 64 66 64 63 63 63 64 66 67 70 70 69 69 70 70 69 68 69 68 69 69 67 68 68 68 69 67 69 68 68 67 67 66 66 64 67 68 65 66 66 68 64 64 64 67 63 64 65 62 61 59 61 60
17 11 4 7 12 5 7 8 12 11 12 9 9 6 5 6 19 22 30 25 26 28 36 45 50 56 59 61 62 64 64 65 65 65 65 65 64 64 64 63 63 63 63 63 64 65 65 62 63 64 65 66 68 69 68 68 68 68 67 69 68 68 69 70 70 70 68 68 69 68 68 69 68 68 68 67 66 67 66 64 64 65 65 64 64 62 61 62 64 63 62 61 61 61 60 60 60
13 13 10 15 11 6 8 9 10 10 9 9 8 7 7 5 8 13 23 30 37 41 47 53 52 56 60 61 62 64 64 65 64 65 65 65 64 64 64 63 62 62 62 63 64 63 62 61 61 63 64 68 68 67 66 66 68 69 70 68 68 68 69 69 69 69 67 68 68 69 69 69 68 70 68 67 66 67 67 65 64 64 64 62 62 61 62 62 60 61 61 62 61 60 58 58 58
10 6 11 11 11 9 9 8 10 10 10 9 7 6 5 5 4 24 23 29 42 49 48 52 54 58 61 62 62 63 63 64 65 65 64 64 65 64 64 63 63 63 62 63 63 63 63 61 62 63 66 68 68 68 68 67 68 68 69 70 69 69 68 68 69 69 68 68 67 68 68 68 67 66 66 67 67 68 67 67 66 63 63 61 61 61 61 62 61 61 62 61 59 58 57 58 57
10 7 12 12 12 11 9 9 9 9 9 8 7 6 5 6 5 18 19 31 50 50 52 51 54 59 61 62 62 64 64 65 65 65 65 64 64 65 65 63 64 63 62 64 65 62 61 63 64 66 67 67 68 67 67 67 68 68 68 68 69 67 69 68 68 68 70 70 69 69 68 68 68 66 67 67 67 67 67 66 64 63 64 62 62 61 63 65 65 63 62 61 61 58 58 60 56
10 8 8 12 11 10 9 9 8 7 6 7 7 6 6 8 11 11 13 43 52 55 53 52 57 58 60 60 62 63 64 65 65 65 64 64 65 64 64 63 63 63 63 64 64 66 64 64 64 65 67 67 67 67 68 68 68 68 69 68 68 68 68 67 68 68 69 68 69 68 68 68 68 67 67 67 66 67 66 66 67 65 64 64 64 63 65 64 65 64 63 61 57 57 58 58 56
10 8 10 11 9 8 9 7 7 7 8 9 6 5 9 24 19 7 28 50 54 54 54 56 57 58 59 59 62 63 63 64 65 65 64 64 64 63 63 63 63 63 64 62 65 65 67 66 66 65 65 68 65 65 66 67 68 68 68 67 67 66 68 67 68 68 68 68 68 69 69 68 68 67 66 66 68 67 67 67 67 66 68 67 67 65 66 66 66 64 63 60 59 57 58 57 55
8 9 9 8 7 7 8 8 8 8 5 7 6 4 17 25 22 10 35 52 52 52 55 56 56 57 58 59 61 64 64 64 64 64 63 63 62 62 64 63 65 65 65 64 65 65 67 67 68 65 65 67 68 64 66 65 66 66 68 67 67 67 67 67 67 67 68 67 67 68 68 68 68 69 68 68 68 68 66 67 66 66 68 67 68 66 66 66 66 63 63 63 62 61 60 59 58
9 8 5 6 5 5 6 5 5 8 4 6 7 10 13 27 12 14 44 51 53 53 54 55 56 56 57 58 60 62 63 64 64 64 64 63 64 64 64 65 64 62 63 65 65 65 66 66 66 65 64 67 66 66 64 65 65 65 66 68 67 66 66 67 67 67 66 67 67 68 67 67 68 67 68 67 66 65 65 66 67 67 66 67 67 69 66 67 66 65 65 63 61 62 62 60 56
11 9 5 3 5 3 4 4 5 7 4 6 4 3 2 15 10 24 49 47 52 53 52 54 56 57 56 59 60 62 63 64 64 63 64 63 64 63 63 64 64 63 63 66 65 65 66 67 68 67 65 65 66 64 65 63 65 66 66 67 67 66 68 67 67 67 66 65 66 66 66 66 66 67 66 67 67 66 65 66 65 66 68 68 68 68 68 67 67 66 63 63 60 61 61 61 58
5 4 6 6 3 2 0 4 4 3 5 5 3 7 -1 2 10 31 46 46 48 48 50 53 55 55 56 58 60 61 63 64 64 64 64 64 64 63 62 64 64 63 63 65 66 65 65 67 66 66 66 66 64 64 64 66 67 65 65 67 67 68 68 67 68 67 66 66 66 66 66 66 65 65 65 66 66 66 65 66 68 68 66 68 67 67 66 67 65 63 61 61 61 59 59 60 59
4 6 5 0 3 2 4 4 4 0 5 5 2 9 0 0 20 40 47 47 46 44 49 53 55 55 57 58 59 60 62 63 63 63 64 63 64 63 63 62 64 64 64 65 64 64 64 66 67 66 67 66 65 65 67 67 67 68 67 67 67 68 67 66 67 66 66 66 66 65 66 65 66 66 65 65 66 66 64 65 66 66 66 67 67 70 68 66 66 66 65 64 62 59 58 59 61
6 5 11 4 3 -1 1 4 4 1 4 4 2 -0 -2 -2 17 42 48 49 47 43 47 54 56 59 58 57 59 60 61 62 63 62 63 64 64 63 63 63 63 64 65 64 65 64 64 65 67 67 66 67 66 65 66 67 68 67 68 66 68 68 66 66 65 66 66 66 66 65 65 66 66 65 65 65 66 66 64 65 65 66 67 67 68 70 68 68 66 65 66 66 66 66 58 61 63
9 5 7 11 5 -1 2 7 8 9 6 2 2 -1 3 16 17 38 48 44 46 43 46 53 55 57 57 57 58 60 60 61 61 61 63 63 63 63 64 64 64 63 64 65 65 65 64 64 66 66 67 66 66 65 67 67 68 68 68 67 67 66 66 65 65 65 65 65 66 66 66 66 66 66 66 65 66 66 65 65 65 66 66 66 68 68 68 67 67 66 65 65 66 64 62 62 61
11 11 11 14 8 4 -2 6 9 11 8 5 5 4 2 3 20 37 47 47 45 47 48 53 54 56 56 55 57 59 60 61 61 61 62 63 63 62 63 63 65 64 65 65 65 65 64 66 66 67 67 66 66 67 67 68 68 67 67 66 66 66 66 66 66 64 63 64 64 65 66 66 66 66 65 66 66 65 65 65 66 67 66 66 67 65 65 65 66 66 66 64 65 65 63 62 62
9 10 7 8 8 4 4 9 14 12 12 6 8 9 6 7 16 31 45 48 49 50 53 53 53 54 56 55 56 58 59 59 61 61 62 63 63 64 64 64 65 65 64 65 65 65 67 67 66 66 67 66 67 67 67 66 66 65 64 65 64 65 65 63 63 62 64 63 64 64 64 66 65 66 65 65 66 66 65 65 67 67 66 66 66 63 64 65 63 64 65 65 65 63 64 65 65
8 7 9 8 6 5 4 12 17 16 14 13 11 12 10 11 11 35 47 49 50 51 52 53 52 54 54 54 56 57 59 59 59 60 62 62 62 64 64 64 64 64 65 65 63 64 65 67 67 66 67 68 67 66 65 64 64 64 64 63 61 62 60 61 61 62 62 63 63 62 65 65 66 65 65 65 66 65 66 66 66 66 66 65 66 64 64 65 65 65 66 65 64 64 64 65 65
11 11 9 5 7 8 6 12 14 17 23 12 16 14 14 13 15 36 47 50 48 49 51 53 53 53 54 55 56 57 59 59 59 61 61 62 62 63 64 65 65 64 64 64 64 64 66 65 64 67 67 68 67 66 65 65 65 62 61 59 58 58 58 58 61 60 61 63 63 63 64 65 66 65 65 65 66 66 66 65 65 65 65 65 65 64 64 64 65 65 65 64 64 63 64 64 64
19 12 10 9 5 5 17 16 17 20 23 18 16 12 12 22 35 40 45 48 48 49 50 52 53 53 53 53 55 57 58 59 60 60 61 61 62 63 63 65 65 65 64 64 65 64 65 65 65 68 67 67 67 67 66 65 64 64 63 61 60 57 60 61 59 60 60 59 64 63 63 63 63 63 65 65 65 65 65 65 65 64 65 65 65 64 64 64 65 65 65 63 63 63 63 64 64
16 13 13 10 7 7 11 23 22 25 23 24 20 13 23 34 41 43 43 45 48 50 51 53 53 53 54 54 54 56 58 58 58 59 60 61 62 62 63 64 64 65 63 63 64 63 64 65 66 68 67 67 67 67 66 65 64 64 65 65 63 60 60 63 63 62 61 61 61 62 62 63 62 61 61 60 64 65 66 65 64 64 64 65 65 64 64 63 64 64 64 64 63 62 61 62 64
18 20 10 7 11 9 9 19 25 30 25 28 16 19 29 32 33 43 51 53 49 49 50 51 52 52 55 55 56 57 57 58 58 59 60 61 62 62 62 63 64 64 64 63 63 63 64 66 66 66 66 66 67 67 66 65 64 64 63 66 64 63 61 59 57 56 58 58 57 60 61 62 61 60 61 60 59 62 62 62 61 62 63 64 64 63 63 63 63 64 64 63 62 61 60 62 63
12 21 20 15 16 15 13 23 23 20 21 28 21 11 14 29 28 32 48 49 47 48 49 50 51 53 53 54 56 58 59 58 58 59 59 61 61 63 63 64 64 62 63 64 65 64 65 66 67 67 67 65 65 66 65 64 64 62 62 59 58 57 56 56 54 54 55 56 52 57 57 59 59 61 59 59 59 59 61 61 62 59 60 62 62 63 62 62 63 62 63 62 63 62 61 59 60
13 14 17 18 16 19 20 20 20 14 12 23 30 18 11 24 26 34 45 45 45 48 49 49 51 52 52 53 53 55 57 58 58 58 59 61 62 63 63 63 63 63 63 65 65 65 65 65 66 67 67 66 66 66 65 65 64 62 62 59 58 57 56 56 56 57 56 54 55 56 55 61 58 59 60 59 59 58 60 61 61 60 60 61 62 61 61 61 60 60 62 62 61 61 62 61 61
10 23 11 15 15 18 21 19 16 17 23 27 25 17 15 11 16 31 42 43 45 48 48 50 49 52 53 54 55 56 55 57 57 57 58 60 62 62 63 64 65 65 64 65 65 65 65 65 67 67 67 66 66 66 65 65 63 62 61 59 58 56 57 57 58 58 58 56 54 56 57 57 58 58 59 58 59 58 59 60 60 61 58 58 57 58 60 60 61 60 63 63 63 63 63 60 60
16 26 17 16 14 18 18 14 18 19 19 17 15 17 15 11 26 32 39 38 40 44 46 48 49 50 52 54 54 55 56 57 57 58 58 59 61 62 63 64 65 65 65 65 64 65 65 65 66 66 67 66 66 66 65 64 63 62 61 60 57 57 57 58 57 56 56 56 56 57 57 55 58 59 58 58 58 58 59 59 60 59 59 58 56 57 59 59 60 61 62 61 64 64 64 63 61
26 21 19 17 16 17 20 16 14 20 18 14 18 22 12 7 20 22 31 33 36 41 44 44 46 49 49 52 55 56 56 57 57 58 59 60 60 62 64 65 65 64 65 65 65 65 65 65 65 65 65 65 66 65 64 64 63 62 61 61 60 58 57 57 55 55 56 56 56 57 56 56 55 57 59 58 59 57 58 59 58 59 60 58 57 58 59 59 60 60 61 61 62 61 61 62 62
21 18 14 14 13 17 18 18 17 19 14 13 22 26 19 8 16 16 23 29 31 30 35 38 43 46 47 52 53 55 55 56 56 57 59 61 61 62 63 63 64 65 65 64 64 64 64 64 64 64 65 65 65 65 64 64 63 62 60 61 60 59 59 58 56 56 54 54 54 55 55 55 55 56 57 59 60 58 60 59 58 58 59 58 56 56 58 57 58 59 60 61 61 61 62 62 62
19 17 14 14 17 18 19 21 19 15 12 20 22 26 25 11 14 15 29 31 34 35 34 36 37 33 37 49 50 53 55 56 56 56 57 60 60 61 63 63 64 64 64 63 63 63 62 62 62 62 62 64 64 64 65 64 62 62 61 62 60 60 59 57 56 55 54 53 54 54 53 54 54 56 57 57 59 59 59 58 59 58 58 58 57 57 56 55 56 56 57 59 59 61 61 61 61
18 17 14 15 13 17 10 12 13 10 11 23 24 24 20 14 29 24 29 35 39 43 41 43 42 39 43 36 47 51 54 54 55 55 57 59 59 60 61 62 63 63 63 62 62 60 58 58 58 58 58 59 61 62 64 63 63 62 61 61 61 60 58 56 54 54 54 53 53 52 52 52 53 55 56 57 59 59 57 57 58 57 56 57 57 55 56 57 56 56 56 57 58 58 58 60 61
16 15 16 12 7 10 10 8 10 11 24 23 23 28 17 14 28 34 36 41 42 45 47 47 46 47 47 39 42 49 53 53 54 55 55 57 59 59 62 62 62 62 61 58 57 56 58 59 59 58 57 59 58 60 62 62 63 62 62 62 61 59 59 57 54 54 54 53 53 53 52 50 53 55 57 57 56 56 55 56 57 57 55 55 57 58 58 56 56 52 55 55 56 57 58 59 59
14 13 11 14 11 11 11 5 7 10 10 24 22 21 15 13 18 33 40 43 45 45 45 49 49 48 50 44 44 49 52 53 53 54 53 55 58 60 61 61 59 57 57 57 57 58 59 60 59 58 56 57 58 60 61 62 62 61 60 62 60 59 58 55 54 55 55 54 53 54 53 53 53 55 54 56 56 55 55 56 56 55 55 57 58 58 56 56 55 51 51 55 54 54 55 55 55
14 13 11 13 13 13 8 18 16 14 10 19 23 18 20 20 31 34 41 42 44 45 46 49 49 48 49 49 50 50 52 52 52 53 56 57 59 59 60 58 56 56 58 59 58 59 60 61 61 59 57 57 58 59 60 61 61 61 61 62 60 59 56 56 56 55 54 54 54 53 53 53 53 53 54 55 55 54 53 54 53 53 54 55 56 55 54 53 54 51 51 52 52 51 53 53 52
18 14 15 12 17 13 18 24 33 25 16 10 19 20 20 26 25 33 39 40 42 45 45 47 49 49 51 50 50 50 51 50 53 54 55 57 58 59 58 57 57 59 60 60 60 60 59 59 59 59 58 58 58 59 60 61 61 62 62 62 60 59 58 58 55 55 55 56 55 53 51 52 54 54 54 55 56 54 53 53 50 51 52 54 55 54 53 53 52 51 51 51 52 52 51 50 50
15 15 12 17 17 19 19 9 17 12 9 14 21 18 14 15 16 28 35 40 42 43 45 47 50 50 49 49 50 49 50 53 54 54 54 55 57 57 57 57 58 59 58 59 60 60 59 59 59 60 58 58 58 59 60 60 62 61 61 61 61 59 59 57 56 56 57 56 55 53 53 52 53 54 54 55 55 54 53 52 50 50 51 51 52 50 49 50 50 47 49 48 47 47 48 48 49
12 12 14 14 15 15 16 16 14 13 12 10 17 15 13 12 19 24 32 39 44 44 45 46 46 47 47 48 50 51 52 52 51 52 54 56 56 56 55 56 56 58 59 59 60 60 58 58 57 58 59 58 58 58 59 61 61 60 60 61 60 58 58 55 54 56 58 57 56 53 52 52 54 54 53 55 54 52 52 50 50 49 50 50 50 50 50 50 48 47 48 46 48 46 45 47 48
12 13 12 13 19 18 13 15 13 15 11 13 17 15 12 13 31 33 32 35 43 44 45 45 45 45 48 49 50 50 51 50 50 51 52 54 55 56 57 57 57 56 57 58 59 58 58 58 57 57 58 58 58 58 59 59 59 59 59 59 59 56 56 54 53 55 56 56 54 53 52 54 54 52 53 53 51 51 52 51 50 49 49 47 47 48 48 49 50 49 48 46 48 47 45 46 46
12 13 13 14 22 23 20 24 13 11 11 11 11 12 11 34 37 37 37 38 40 45 45 46 47 47 47 48 49 48 49 50 48 48 48 50 53 55 56 56 57 57 57 58 58 58 58 58 58 57 58 58 58 58 58 59 59 59 60 60 59 59 57 54 53 54 56 56 55 54 53 53 52 52 52 52 50 50 49 50 50 50 48 48 47 48 49 49 48 48 47 47 47 45 43 43 46
12 14 13 11 13 16 11 12 16 17 12 12 11 11 19 36 37 39 39 41 41 43 46 46 46 46 48 49 49 48 49 51 51 50 51 51 53 55 54 56 57 57 59 57 58 58 58 58 57 58 57 57 57 58 58 59 60 60 59 58 59 59 57 56 55 54 56 55 53 52 54 52 53 53 52 49 47 50 49 49 48 48 50 48 47 47 48 48 45 48 49 49 48 45 44 43 46